Погода в Усть-Сахрае

Россия / Республика Адыгея     44°12′29″N   40°16′47″E
темп.,
°C
ветер,
м/с
пор.,
м/с
влажн.,
%
обл.,
%
осадки,
мм/ч
давл.,
гПа
погр.,
м
18 мая, вт
вт1800:00+12ю2297100 4.2 101065
03:00+12юз1195100 7.0 101116
06:00+11ю12958 0.1 101147
09:00+18с22617 0.3 1010911
12:00+18ссв33641 1.4 10101021
15:00+20св336010 2.5 10101092
18:00+17всв23890 1.1 1011238
21:00+12ю22943 1.5 101124
19 мая, ср
ср1900:00+10ю228814 0.0 101030
03:00+10зюз2293100 1.2 100943
06:00+11ю119399 0.8 100928
09:00+13ссз569199 1.9 1011754
12:00+17зюз310511 3.6 10131716
15:00+18юз412336 3.6 10132114
18:00+15зюз310479 0.0 10141618
21:00+8ю33660 0.0 101755
20 мая, чт
чт2000:00+7ю33640 0.0 101748
03:00+7ю226399 0.0 101636
06:00+9ююв22646 0.0 101645
09:00+18всв22365 0.0 1014653
12:00+22св33300 0.0 10131375
15:00+23св3335100 0.0 10121272
18:00+19в246599 0.0 1012239
21:00+13ююв33831 0.0 101243
21 мая, пт
пт2100:00+13ю32480 0.0 101138
03:00+14ю32424 0.0 101037
06:00+15ю33555 0.0 101046
09:00+26вюв25303 0.0 1008482
12:00+31всв22245 0.0 10061151
15:00+32з38197 0.0 10063560
18:00+25ссз23706 0.0 100775
21:00+18ююз228324 0.0 100932
22 мая, сб
сб2200:00+17ю2253100 0.0 100830
03:00+16ю3466100 0.2 100747
06:00+16ююв3379100 0.5 100741
09:00+26сз1152100 0.6 1006159
12:00+27ссз1243100 0.1 1008592
15:00+25ссв2352100 0.1 1007367
18:00+19ююв2387100 0.6 101065
21:00+15ююв338993 1.0 101045